Weather in Ostanino

Russia / Republic of Crimea     45°19′40″N   35°54′45″E
temp.,
°C
wind,
m/s
gust,
m/s
humid.,
%
clouds,
%
prec.,
mm/h
press.,
hPa
HPBL,
m
27 february, sat
sat2700:00+7sw713920 0.0 1023289
03:00+7sw712900 0.0 1022303
06:00+6sw612900 0.0 1020288
09:00+8sw711790 0.0 1020376
12:00+11sw79670 0.0 1019601
15:00+11sw68652 0.0 1018595
18:00+9wnw347722 0.0 1017297
21:00+6n469260 0.1 1017312
28 february, sun
sun2800:00+5n6991100 1.1 1018507
03:00+4n5892100 1.3 1018477
06:00+4nnw4884100 0.0 1019422
09:00+4nnw688394 0.2 1019668
12:00+5nnw677594 0.2 1020837
15:00+4nnw578197 0.3 1020693
18:00+4nw577986 0.2 1021767
21:00+3nnw488888 0.4 1022441
1 march, mon
mon100:00+2nw368585 0.1 1023233
03:00+2nw238683 0.3 102351
06:00+1w248797 0.1 1024105
09:00+2nw459398 0.2 1025382
12:00+4nw3480100 0.4 1026545
15:00+5nnw336699 0.6 1027837
18:00+3n3372100 0.1 1027494
21:00+1n228266 0.1 102926
2 march, tue
tue200:000nnw22840 0.0 102922
03:000nw12860 0.0 103022
06:000wnw22860 0.0 102929
09:00+3wnw247118 0.0 1030370
12:00+5wnw556355 0.0 10301030
15:00+6wnw585440 0.0 10281149
18:00+5w496653 0.0 1026668
21:00+3w7127576 0.0 1026660
3 march, wed
wed300:00+4w5118083 0.0 1026524
03:00+5wnw5108491 0.0 1025455
06:00+3nnw368761 0.0 1025305
09:00+4w468035 0.0 1026264
12:00+8wnw576370 0.0 1026869
15:00+9nw676156 0.0 10261222
18:00+7nnw357148 0.0 1026235
21:00+6ssw017748 0.0 102722